Погода в Тумбесе

Перу     3°34′04″S   80°27′10″W
темп.,
°C
ветер,
м/с
пор.,
м/с
влажн.,
%
обл.,
%
осадки,
мм/ч
давл.,
гПа
погр.,
м
8 декабря, ср
ср801:00+22з2281100 0.0 1011214
04:00+23всв3382100 0.0 1010215
07:00+23всв338547 0.0 1011275
10:00+23с438220 0.0 1012326
13:00+23зсз5485100 0.0 1010313
16:00+23з6585100 0.0 1008348
19:00+22зюз7783100 0.0 1010332
22:00+23з337997 0.0 1012226
9 декабря, чт
чт901:00+22зсз328298 0.0 1012341
04:00+22с2383100 0.0 1011415
07:00+22с338495 0.0 1012463
10:00+23с2381100 0.0 1013413
13:00+22сз558490 0.0 1011400
16:00+22з558398 0.0 1009346
19:00+22зюз6683100 0.0 1011370
22:00+22зюз668497 0.0 1013374
10 декабря, пт
пт1001:00+22зюз558382 0.0 1012370
04:00+22з3383100 0.1 1011319
07:00+22з1184100 0.3 1012213
10:00+22ссз228288 0.0 1013291
13:00+23сз438321 0.0 1011352
16:00+22зсз558476 0.0 1009409
19:00+22з4483100 0.0 1011373
22:00+22зюз4484100 0.0 1014356
11 декабря, сб
сб1101:00+22з4483100 0.0 1012363
04:00+22з3384100 0.4 1011294
07:00+21юз1188100 1.3 1013160
10:00+22юв0184100 0.3 1013211
13:00+22св1185100 0.4 1012207
16:00+22ссв118799 0.2 1010225
19:00+22з1186100 0.3 1011267
22:00+22зсз218594 0.0 1013286
12 декабря, вс
вс1201:00+22сз118669 0.0 1012204
04:00+22ссв118694 0.0 1011194
07:00+22в228654 0.0 1012231
10:00+23с328313 0.0 1013369
13:00+23сз548416 0.0 1011384
16:00+23з548520 0.0 1010404
19:00+22зюз548627 0.0 1011324
22:00+22зюз4484100 0.0 1014285